CW7693 Weather Reports


time (UTC)temp
C
wind
direction
speed
KPH
gust
KPH
rain 1hr
cm
rain 24hr
cm
rain mn
cm
humidity
%
barometer
mb
20260507051610 7 155 4.8 8.0 0.00 0.71 0.00 90 1012.0
20260507050002 7 158 4.8 6.4 0.00 0.71 0.00 90 1011.8
20260507044601 7 251 1.6 4.8 0.00 0.71 0.00 91 1011.7
20260507043008 7 117 3.2 6.4 0.00 0.71 0.00 91 1011.3
20260507041602 7 129 1.6 4.8 0.00 0.71 0.00 91 1011.4
20260507040003 7 136 1.6 6.4 0.00 0.71 0.00 90 1011.2
20260507034503 7 159 3.2 6.4 0.00 0.71 0.00 90 1011.2
20260507033112 7 142 1.6 4.8 0.00 0.71 0.00 89 1011.1
20260507031502 7 136 3.2 6.4 0.00 0.71 0.00 88 1011.0
20260507024508 7 109 0.0 3.2 0.00 0.71 0.00 89 1010.9
20260507023102 8 109 0.0 0.0 0.00 0.71 0.00 89 1010.8
20260507021502 8 109 0.0 4.8 0.00 0.71 0.00 90 1010.9
20260507020115 7 55 0.0 4.8 0.00 0.71 0.00 91 1010.7
20260507014502 7 63 0.0 8.0 0.00 0.71 0.00 92 1010.5
20260507013102 7 87 0.0 3.2 0.00 0.71 0.00 92 1010.5
20260507011509 8 82 0.0 6.4 0.00 0.71 0.00 92 1010.5
20260507010104 8 138 1.6 4.8 0.00 0.71 0.00 92 1010.4
20260507004504 8 141 3.2 8.0 0.00 0.71 0.00 91 1010.2
20260507003101 8 139 0.0 3.2 0.00 0.71 0.00 91 1010.3
20260507001504 8 138 1.6 4.8 0.00 0.71 0.00 91 1010.3
20260506234502 8 121 0.0 0.0 0.00 0.71 0.00 91 1010.4
20260506233112 8 121 0.0 3.2 0.00 0.71 0.00 91 1010.3
20260506231503 8 80 3.2 6.4 0.00 0.71 0.00 91 1010.3
20260506230103 8 132 1.6 8.0 0.00 0.71 0.00 91 1010.1
20260506224502 8 154 0.0 3.2 0.00 0.71 0.00 91 1010.2
20260506223106 8 153 0.0 0.0 0.00 0.71 0.00 91 1010.2
20260506221612 8 153 0.0 4.8 0.00 0.71 0.00 91 1010.1
20260506220004 8 170 3.2 12.9 0.00 0.71 0.00 91 1010.0
20260506214603 8 261 0.0 3.2 0.00 0.71 0.71 92 1010.0
20260506213002 8 115 4.8 8.0 0.00 0.71 0.71 92 1009.9
20260506211601 7 151 0.0 4.8 0.00 0.71 0.71 92 1010.0
20260506210003 7 190 1.6 4.8 0.00 0.71 0.71 92 1009.9
20260506204604 7 210 0.0 4.8 0.00 0.71 0.71 92 1009.9
20260506203002 7 168 0.0 6.4 0.00 0.71 0.71 92 1009.8
20260506201603 7 176 0.0 6.4 0.00 0.71 0.71 91 1009.7
20260506200002 7 170 0.0 4.8 0.00 0.71 0.71 91 1009.6
20260506194603 7 130 1.6 6.4 0.00 0.71 0.71 91 1009.3
20260506193002 7 115 0.0 4.8 0.00 0.71 0.71 90 1009.0
20260506191602 8 118 0.0 4.8 0.00 0.71 0.71 90 1008.9
20260506190007 8 119 0.0 3.2 0.00 0.71 0.71 90 1008.7
20260506184611 8 119 0.0 6.4 0.00 0.71 0.71 89 1008.5
20260506183007 8 31 3.2 4.8 0.00 0.71 0.71 89 1008.2
20260506181624 8 155 0.0 4.8 0.00 0.71 0.71 88 1008.1
20260506180003 8 285 0.0 0.0 0.00 0.71 0.71 88 1008.0
20260506174602 8 284 0.0 4.8 0.05 0.71 0.71 88 1007.9
20260506173003 8 128 1.6 8.0 0.13 0.71 0.71 88 1007.6
20260506171606 8 171 4.8 12.9 0.15 0.71 0.71 88 1007.5
20260506170004 8 153 1.6 14.5 0.33 0.71 0.71 87 1007.2
20260506164614 8 168 4.8 12.9 0.25 0.66 0.66 86 1007.4
20260506163002 8 159 4.8 9.7 0.18 0.58 0.58 85 1007.7
20260506161503 9 152 11.3 17.7 0.15 0.53 0.53 82 1007.4
20260506160109 10 185 8.0 14.5 0.00 0.41 0.41 75 1007.4
20260506154605 10 92 8.0 20.9 0.00 0.41 0.41 73 1006.7
20260506153002 11 139 9.7 29.0 0.00 0.41 0.41 71 1006.3
20260506151602 11 360 12.9 33.8 0.00 0.41 0.41 72 1005.6
20260506150104 12 360 19.3 40.2 0.00 0.41 0.41 71 1005.1
20260506144506 15 327 3.2 9.7 0.00 0.41 0.41 68 1004.6
20260506143104 14 109 1.6 6.4 0.00 0.41 0.41 68 1004.4
20260506141502 13 360 1.6 4.8 0.00 0.41 0.41 74 1004.4
20260506140005 13 20 3.2 8.0 0.00 0.41 0.41 74 1004.5
20260506134603 13 309 3.2 8.0 0.00 0.41 0.41 78 1004.4
20260506133002 12 316 3.2 6.4 0.03 0.41 0.41 84 1004.7
20260506131602 11 360 0.0 4.8 0.03 0.41 0.41 87 1004.7
20260506130004 10 103 1.6 11.3 0.41 0.41 0.41 86 1005.1
20260506124609 9 55 6.4 14.5 0.41 0.41 0.41 86 1005.1
20260506123003 10 66 6.4 12.9 0.38 0.38 0.38 85 1005.0
20260506121604 10 328 1.6 19.3 0.38 0.38 0.38 82 1004.7
20260506120008 13 360 11.3 20.9 0.00 0.00 0.00 71 1004.2
20260506114614 14 276 12.9 20.9 0.00 0.00 0.00 69 1003.4
20260506113008 15 293 9.7 16.1 0.00 0.00 0.00 67 1003.2
20260506111602 15 321 8.0 19.3 0.00 0.00 0.00 66 1003.3
20260506110003 15 317 4.8 17.7 0.00 0.00 0.00 66 1003.6
20260506104606 15 300 11.3 19.3 0.00 0.00 0.00 66 1003.7
20260506103006 15 5 4.8 22.5 0.00 0.00 0.00 66 1003.6
20260506101604 15 304 8.0 17.7 0.00 0.00 0.00 66 1003.9
20260506094601 14 360 3.2 14.5 0.00 0.00 0.00 68 1004.2
20260506093003 13 328 8.0 14.5 0.00 0.00 0.00 69 1004.4
20260506091603 13 360 3.2 12.9 0.00 0.00 0.00 71 1004.6
20260506090003 12 360 3.2 11.3 0.00 0.00 0.00 74 1004.5
20260506084610 12 360 6.4 12.9 0.00 0.00 0.00 75 1004.6
20260506083002 11 27 3.2 6.4 0.00 0.00 0.00 76 1004.7
20260506081603 11 14 1.6 8.0 0.00 0.00 0.00 78 1004.8
20260506073003 10 255 1.6 4.8 0.00 0.00 0.00 80 1004.7
20260506071607 10 170 0.0 3.2 0.00 0.00 0.00 82 1004.6
20260506061604 8 178 0.0 4.8 0.00 0.00 0.00 87 1005.3